TimeEDT,TemperatureF,Dew PointF,Humidity,Sea Level PressureIn,VisibilityMPH,Wind Direction,Wind SpeedMPH,Gust SpeedMPH,PrecipitationIn,Events,Conditions,WindDirDegrees,DateUTC
12:53 AM,48.9,46.0,90,30.13,10.0,Calm,Calm,-,N/A,,Clear,0,2012-10-10 04:53:00
1:53 AM,48.0,46.0,93,30.12,9.0,Calm,Calm,-,N/A,,Clear,0,2012-10-10 05:53:00
2:53 AM,46.9,44.1,90,30.12,10.0,Calm,Calm,-,N/A,,Clear,0,2012-10-10 06:53:00
3:53 AM,46.9,45.0,93,30.11,9.0,Calm,Calm,-,N/A,,Clear,0,2012-10-10 07:53:00
4:53 AM,46.0,44.1,93,30.10,9.0,Calm,Calm,-,N/A,,Clear,0,2012-10-10 08:53:00
5:50 AM,44.6,44.6,100,30.10,7.0,West,3.5,-,N/A,,Scattered Clouds,260,2012-10-10 09:50:00
5:53 AM,46.0,44.1,93,30.11,6.0,WSW,5.8,-,N/A,,Mostly Cloudy,250,2012-10-10 09:53:00
5:58 AM,46.4,44.6,93,30.10,1.8,WSW,5.8,-,N/A,,Mostly Cloudy,240,2012-10-10 09:58:00
6:14 AM,46.4,46.4,100,30.10,2.5,WSW,4.6,-,N/A,,Overcast,240,2012-10-10 10:14:00
6:24 AM,46.4,46.4,100,30.11,3.0,WSW,5.8,-,N/A,,Overcast,250,2012-10-10 10:24:00
6:43 AM,46.4,46.4,100,30.11,1.5,WSW,8.1,-,N/A,,Overcast,240,2012-10-10 10:43:00
6:53 AM,48.0,46.0,93,30.11,1.8,WSW,8.1,-,N/A,,Overcast,240,2012-10-10 10:53:00
7:00 AM,48.2,46.4,93,30.11,2.5,West,6.9,-,N/A,,Overcast,260,2012-10-10 11:00:00
7:11 AM,48.2,46.4,93,30.11,3.0,West,8.1,-,N/A,,Overcast,260,2012-10-10 11:11:00
7:23 AM,48.2,46.4,93,30.12,2.0,West,8.1,-,N/A,,Overcast,270,2012-10-10 11:23:00
7:37 AM,46.4,46.4,100,30.12,4.0,WSW,6.9,-,N/A,,Overcast,240,2012-10-10 11:37:00
7:53 AM,46.9,46.0,97,30.12,5.0,West,4.6,-,N/A,,Scattered Clouds,260,2012-10-10 11:53:00
8:53 AM,50.0,46.9,89,30.12,8.0,West,5.8,-,N/A,,Scattered Clouds,260,2012-10-10 12:53:00
9:53 AM,53.1,48.9,86,30.12,10.0,West,5.8,-,N/A,,Clear,270,2012-10-10 13:53:00
10:53 AM,60.1,50.0,69,30.10,10.0,SW,9.2,-,N/A,,Clear,230,2012-10-10 14:53:00
11:53 AM,64.9,51.1,61,30.09,10.0,West,8.1,-,N/A,,Clear,270,2012-10-10 15:53:00
12:53 PM,68.0,51.1,55,30.08,10.0,WSW,5.8,-,N/A,,Clear,240,2012-10-10 16:53:00
1:53 PM,70.0,51.1,51,30.07,10.0,West,8.1,-,N/A,,Clear,280,2012-10-10 17:53:00
2:53 PM,73.9,52.0,46,30.05,10.0,West,6.9,16.1,N/A,,Mostly Cloudy,260,2012-10-10 18:53:00
3:53 PM,73.0,48.0,41,30.05,10.0,WNW,15.0,21.9,N/A,,Partly Cloudy,300,2012-10-10 19:53:00
4:53 PM,72.0,46.0,40,30.06,10.0,West,12.7,25.3,N/A,,Clear,270,2012-10-10 20:53:00
5:53 PM,70.0,46.0,42,30.07,10.0,West,12.7,20.7,N/A,,Clear,280,2012-10-10 21:53:00
6:53 PM,66.9,46.0,47,30.08,10.0,WNW,8.1,-,N/A,,Clear,290,2012-10-10 22:53:00
7:53 PM,64.0,46.9,54,30.10,10.0,West,6.9,-,N/A,,Clear,280,2012-10-10 23:53:00
8:53 PM,62.1,46.0,56,30.12,10.0,West,4.6,-,N/A,,Clear,280,2012-10-11 00:53:00
9:53 PM,60.1,46.9,62,30.14,10.0,Calm,Calm,-,N/A,,Clear,0,2012-10-11 01:53:00
10:53 PM,57.0,46.9,69,30.14,10.0,Calm,Calm,-,N/A,,Clear,0,2012-10-11 02:53:00
11:53 PM,54.0,48.0,80,30.16,10.0,Calm,Calm,-,N/A,,Clear,0,2012-10-11 03:53:00